User: anonymous   Login
Location: Unspecified
(0.0000°N, 0.0000°E)
Time: 08:17:17
(UTC+00:00)
Language:

SES 6 - Orbit

View from above orbital plane
View from above orbital plane
View from above satellite
View from above satellite

Ground track
Ground track

The orbit data is extracted from the following two-line orbital elements,

1 39172U 13026A   18145.43764461 -.00000276 +00000-0 +00000-0 0  9994
2 39172 000.0238 326.2542 0002052 100.8426 292.9227 01.00271661018197
Epoch (UTC): 25 May 2018 10:30:12
Eccentricity: 0.0002052
inclination: 0.0238°
perigee height: 35777 km
apogee height: 35795 km
right ascension of ascending node: 326.2542°
argument of perigee: 100.8426°
revolutions per day: 1.00271661
mean anomaly at epoch: 292.9227°
orbit number at epoch: 1819

The dashed part of the orbit path shows where the satellite is in the earth's shadow,  

DLR